Temp
-3 -3 -2 -2 -3 -5 -6 -5 -6 -7 -7 -7 -6 -6 -6 -7 -4 -5 -4 -5 -5 -5 -4 -4 -4 -4 -4 -5 -5 -5 -5 -5 -5 -6 -6 -6 -6 -6 -6 -6 -6 -6 -6 -6
-2 -2 -3 -4 -4 -5 -6 -5 -5 -8 -8 -7 -6 -6 -6 -6 -5 -5 -4 -5 -5 -4 -4 -4 -4 -4 -4 -4 -4 -4 -4 -5 -5 -5 -5 -6 -6 -6 -6 -6 -6 -6 -6 -7
-3 -3 -4 -4 -4 -4 -5 -6 -5 -7 -7 -7 -7 -6 -5 -6 -6 -5 -4 -5 -5 -5 -4 -4 -3 -4 -4 -4 -4 -4 -4 -4 -5 -5 -5 -5 -6 -6 -6 -6 -7 -6 -6 -6
-3 -3 -3 -3 -4 -4 -4 -5 -6 -7 -8 -5 -7 -6 -7 -7 -5 -5 -5 -5 -5 -5 -4 -4 -4 -3 -4 -4 -4 -4 -4 -4 -4 -5 -5 -5 -5 -6 -6 -6 -6 -7 -7 -7
-3 -3 -3 -3 -3 -5 -3 -6 -6 -7 -7 -8 -7 -6 -7 -6 -5 -5 -6 -5 -5 -5 -5 -5 -4 -4 -4 -4 -4 -4 -4 -4 -4 -4 -4 -5 -5 -5 -6 -6 -6 -6 -6 -6
-3 -3 -3 -3 -3 -4 -4 -5 -6 -6 -7 -8 -7 -6 -6 -7 -5 -6 -6 -6 -6 -5 -6 -5 -5 -5 -5 -4 -4 -4 -4 -5 -5 -4 -5 -5 -6 -6 -6 -6 -6 -6 -6 -6
-3 -3 -3 -3 -3 -4 -5 -5 -5 -6 -6 -6 -7 -7 -4 -6 -7 -6 -5 -6 -6 -5 -5 -6 -6 -6 -6 -6 -6 -6 -5 -5 -5 -5 -5 -5 -5 -6 -6 -6 -6 -6 -6 -6
-3 -3 -3 -3 -3 -3 -3 -6 -4 -4 -4 -5 -6 -6 -3 -4 -6 -7 -5 -5 -6 -6 -5 -7 -6 -6 -7 -6 -6 -6 -6 -5 -5 -6 -6 -6 -6 -6 -6 -6 -6 -6 -7 -7
-4 -3 -4 -4 -4 -4 -5 -3 -5 -6 -6 -6 -5 -6 -6 -6 -5 -6 -6 -6 -6 -6 -6 -6 -7 -7 -7 -7 -7 -7 -7 -6 -5 -6 -6 -7 -7 -7 -6 -6 -7 -7 -7 -7
-4 -4 -5 -5 -4 -5 -5 -5 -6 -6 -6 -5 -5 -5 -5 -5 -5 -5 -6 -6 -6 -6 -6 -6 -7 -6 -6 -7 -7 -7 -7 -7 -6 -6 -6 -6 -7 -7 -7 -7 -7 -7 -7 -7
-6 -6 -4 -5 -5 -5 -4 -4 -5 -6 -6 -6 -5 -4 -5 -5 -6 -6 -6 -5 -5 -6 -5 -5 -5 -5 -6 -6 -7 -7 -7 -7 -6 -6 -5 -5 -6 -7 -7 -7 -8 -8 -8 -8
-7 -7 -6 -5 -5 -6 -5 -5 -6 -6 -5 -7 -7 -3 -5 -5 -6 -6 -5 -5 -5 -6 -6 -6 -6 -6 -6 -6 -6 -7 -7 -7 -7 -6 -6 -5 -5 -6 -6 -7 -8 -8 -8 -8
-9 -7 -7 -6 -6 -6 -6 -6 -5 -6 -6 -5 -6 -3 -5 -5 -7 -7 -6 -7 -7 -7 -6 -6 -7 -7 -6 -6 -6 -7 -7 -7 -7 -6 -6 -6 -6 -6 -7 -7 -8 -8 -8 -8
-10 -9 -7 -5 -5 -7 -6 -7 -7 -6 -5 -4 -4 -4 -4 -5 -6 -7 -6 -7 -7 -7 -8 -7 -7 -7 -6 -6 -6 -7 -7 -7 -7 -7 -7 -7 -7 -7 -8 -8 -8 -8 -8 -8
-9 -10 -9 -7 -7 -8 -7 -8 -8 -7 -5 -6 -4 -5 -4 -5 -6 -7 -7 -7 -7 -8 -8 -7 -7 -7 -7 -6 -6 -6 -7 -7 -7 -7 -7 -7 -7 -7 -8 -8 -8 -8 -8 -8
-10 -10 -10 -10 -9 -8 -8 -8 -8 -9 -8 -7 -6 -5 -6 -6 -7 -7 -7 -7 -7 -8 -7 -7 -8 -7 -7 -6 -6 -6 -6 -7 -7 -8 -7 -7 -7 -7 -8 -8 -8 -8 -9 -8
-10 -10 -10 -10 -10 -10 -9 -7 -9 -9 -8 -8 -7 -5 -7 -7 -7 -8 -8 -8 -7 -7 -8 -8 -8 -8 -7 -7 -7 -6 -5 -7 -7 -7 -8 -8 -7 -7 -8 -8 -8 -8 -9 -9
-10 -11 -10 -10 -10 -10 -7 -7 -8 -9 -9 -9 -9 -8 -7 -6 -7 -7 -8 -8 -6 -8 -7 -9 -9 -8 -8 -8 -7 -7 -6 -6 -6 -7 -8 -8 -8 -7 -8 -8 -8 -8 -8 -8
-12 -11 -11 -11 -10 -10 -9 -7 -8 -9 -9 -9 -9 -9 -8 -6 -7 -6 -7 -8 -7 -6 -7 -9 -8 -9 -9 -9 -8 -8 -7 -6 -7 -7 -8 -8 -8 -8 -8 -9 -8 -8 -8 -9
-12 -13 -12 -12 -11 -10 -8 -9 -9 -9 -9 -9 -9 -9 -9 -7 -7 -6 -7 -7 -8 -8 -8 -8 -9 -7 -8 -9 -8 -8 -8 -7 -6 -7 -8 -8 -8 -8 -8 -9 -9 -9 -9 -9
-13 -13 -13 -12 -12 -11 -10 -10 -10 -10 -9 -9 -9 -9 -9 -8 -7 -6 -6 -7 -7 -8 -8 -8 -7 -7 -8 -8 -8 -7 -7 -7 -7 -8 -8 -8 -8 -8 -8 -8 -9 -9 -9 -9
-15 -14 -13 -13 -13 -12 -11 -11 -11 -10 -10 -9 -9 -9 -9 -8 -8 -8 -8 -7 -7 -7 -7 -8 -8 -9 -9 -8 -7 -8 -7 -7 -7 -8 -8 -8 -8 -8 -8 -8 -9 -9 -9 -9
-14 -13 -13 -13 -13 -13 -12 -11 -11 -11 -10 -10 -8 -8 -9 -9 -9 -8 -8 -7 -8 -8 -8 -8 -8 -8 -9 -8 -7 -8 -8 -7 -8 -8 -8 -8 -8 -8 -8 -8 -9 -9 -9 -9
-14 -13 -12 -12 -12 -11 -11 -11 -11 -10 -9 -8 -9 -9 -9 -9 -9 -9 -8 -8 -8 -9 -9 -9 -8 -8 -8 -9 -9 -9 -9 -8 -8 -8 -8 -8 -8 -9 -9 -9 -9 -9 -9 -9
-14 -13 -13 -12 -12 -11 -11 -11 -9 -10 -10 -10 -10 -9 -9 -9 -9 -9 -9 -8 -9 -9 -9 -9 -10 -9 -9 -10 -9 -9 -9 -9 -8 -8 -8 -8 -9 -9 -9 -9 -9 -9 -9 -10
-14 -13 -13 -12 -11 -9 -11 -10 -10 -11 -11 -10 -10 -9 -10 -10 -9 -9 -9 -9 -8 -9 -9 -9 -10 -10 -10 -10 -10 -10 -10 -9 -9 -9 -8 -9 -9 -9 -9 -9 -9 -9 -10 -10
Height
5863 5865 5869 5872 5877 5883 5887 5888 5889 5896 5901 5898 5899 5900 5903 5901 5901 5904 5904 5902 5902 5904 5905 5907 5909 5912 5914 5916 5918 5920 5923 5923 5924 5925 5925 5927 5928 5929 5930 5932 5932 5932 5932 5932
5858 5860 5867 5869 5871 5875 5880 5885 5884 5890 5895 5893 5898 5899 5901 5899 5902 5902 5903 5901 5903 5905 5906 5907 5910 5912 5914 5916 5918 5919 5921 5923 5924 5924 5925 5926 5927 5928 5930 5930 5931 5931 5931 5930
5854 5859 5860 5863 5866 5869 5875 5880 5884 5885 5888 5890 5892 5892 5895 5896 5898 5899 5899 5899 5901 5906 5908 5909 5909 5911 5912 5914 5915 5917 5919 5920 5922 5922 5923 5924 5926 5927 5928 5929 5929 5929 5929 5928
5849 5852 5852 5855 5859 5865 5869 5877 5883 5882 5884 5883 5884 5886 5888 5892 5892 5894 5894 5897 5901 5903 5907 5909 5910 5911 5912 5912 5914 5915 5917 5918 5919 5921 5922 5923 5924 5925 5926 5926 5927 5926 5926 5925
5848 5846 5848 5849 5853 5858 5868 5873 5877 5879 5879 5879 5882 5880 5884 5888 5886 5890 5890 5896 5898 5901 5904 5906 5908 5910 5911 5912 5912 5913 5914 5916 5916 5918 5919 5920 5921 5922 5923 5924 5923 5924 5924 5923
5841 5841 5841 5845 5848 5850 5862 5865 5870 5874 5874 5872 5875 5877 5879 5879 5881 5885 5890 5892 5897 5898 5902 5904 5905 5907 5907 5909 5910 5910 5911 5912 5914 5915 5916 5917 5918 5919 5920 5920 5920 5920 5920 5919
5835 5834 5836 5838 5841 5844 5849 5855 5859 5861 5859 5859 5871 5872 5874 5881 5884 5884 5888 5888 5891 5896 5898 5900 5902 5903 5903 5904 5906 5905 5906 5908 5910 5911 5913 5913 5914 5915 5916 5917 5917 5917 5917 5918
5823 5826 5831 5835 5834 5838 5839 5846 5846 5848 5852 5858 5864 5860 5867 5879 5884 5882 5883 5884 5887 5884 5891 5893 5898 5900 5900 5900 5901 5902 5902 5903 5905 5906 5907 5909 5910 5911 5911 5914 5915 5914 5914 5915
5816 5819 5826 5825 5830 5831 5834 5832 5846 5846 5850 5852 5855 5859 5866 5872 5878 5882 5880 5880 5880 5886 5883 5887 5893 5896 5897 5897 5898 5898 5898 5898 5899 5901 5902 5904 5905 5906 5908 5909 5911 5911 5910 5913
5805 5808 5814 5818 5822 5822 5824 5834 5834 5833 5836 5838 5847 5852 5858 5867 5871 5874 5876 5878 5881 5880 5883 5880 5888 5893 5895 5895 5895 5896 5896 5895 5895 5895 5897 5897 5899 5901 5904 5906 5907 5909 5908 5909
5795 5796 5804 5806 5806 5813 5817 5819 5822 5828 5829 5829 5835 5839 5853 5860 5864 5866 5868 5874 5874 5869 5874 5874 5882 5888 5891 5892 5891 5892 5893 5892 5892 5892 5892 5893 5894 5897 5900 5902 5903 5905 5907 5906
5779 5786 5786 5791 5798 5802 5808 5811 5817 5815 5821 5823 5829 5829 5850 5857 5856 5859 5862 5867 5870 5868 5865 5872 5876 5880 5884 5888 5888 5888 5889 5889 5889 5889 5889 5889 5890 5893 5897 5899 5900 5902 5903 5905
5770 5765 5772 5780 5784 5787 5791 5800 5805 5811 5817 5816 5819 5822 5839 5845 5846 5848 5852 5856 5861 5865 5866 5866 5868 5872 5879 5882 5884 5884 5885 5887 5886 5887 5887 5887 5888 5891 5894 5896 5897 5898 5899 5900
5749 5750 5750 5758 5771 5781 5782 5787 5794 5800 5800 5806 5806 5816 5827 5837 5840 5844 5845 5846 5851 5850 5857 5859 5860 5866 5872 5877 5878 5880 5881 5882 5883 5884 5885 5886 5886 5888 5890 5892 5893 5893 5893 5894
5726 5726 5736 5745 5757 5769 5773 5778 5782 5784 5792 5794 5806 5808 5816 5828 5831 5836 5840 5839 5846 5845 5852 5854 5855 5860 5866 5870 5873 5875 5876 5877 5879 5881 5883 5883 5883 5884 5885 5887 5888 5889 5890 5889
5709 5714 5725 5731 5740 5751 5760 5767 5774 5778 5783 5787 5792 5797 5806 5818 5823 5828 5831 5834 5837 5840 5843 5846 5850 5853 5856 5862 5868 5871 5872 5873 5873 5876 5879 5878 5879 5880 5881 5882 5883 5883 5883 5883
5694 5703 5712 5716 5728 5737 5746 5748 5760 5770 5774 5778 5779 5790 5798 5803 5812 5818 5823 5823 5825 5830 5835 5838 5842 5844 5847 5852 5854 5859 5864 5867 5867 5869 5872 5873 5874 5875 5876 5876 5877 5878 5878 5877
5681 5688 5693 5704 5717 5722 5729 5743 5751 5759 5767 5772 5774 5781 5786 5791 5802 5807 5812 5811 5814 5819 5826 5828 5833 5836 5839 5842 5845 5849 5856 5859 5860 5862 5865 5867 5868 5869 5869 5869 5871 5871 5871 5871
5668 5676 5684 5688 5697 5710 5721 5733 5744 5750 5756 5765 5766 5770 5774 5777 5788 5797 5801 5803 5805 5813 5813 5814 5821 5827 5830 5833 5838 5840 5844 5849 5851 5854 5858 5860 5861 5862 5863 5863 5863 5864 5863 5863
5657 5663 5671 5678 5685 5695 5711 5726 5737 5740 5746 5752 5755 5758 5762 5768 5776 5784 5788 5790 5795 5797 5803 5809 5811 5815 5819 5822 5826 5830 5835 5837 5841 5846 5850 5852 5853 5854 5855 5856 5856 5856 5855 5855
5638 5644 5650 5666 5678 5687 5701 5718 5726 5729 5736 5740 5746 5751 5755 5760 5766 5770 5777 5782 5784 5789 5793 5794 5799 5804 5808 5812 5814 5819 5825 5828 5833 5836 5839 5842 5844 5846 5847 5848 5848 5847 5845 5846
5613 5626 5643 5659 5672 5680 5695 5707 5716 5720 5721 5728 5733 5740 5746 5751 5756 5760 5764 5769 5778 5780 5780 5785 5788 5792 5796 5803 5807 5809 5814 5821 5822 5825 5828 5830 5834 5836 5838 5839 5838 5836 5834 5835
5616 5627 5634 5651 5664 5673 5686 5694 5700 5701 5711 5716 5724 5732 5737 5742 5747 5750 5750 5756 5759 5763 5767 5772 5777 5781 5785 5788 5794 5799 5802 5808 5811 5815 5818 5820 5823 5827 5828 5829 5829 5828 5826 5826
5611 5622 5632 5639 5647 5655 5667 5677 5682 5693 5703 5709 5715 5723 5728 5732 5735 5738 5742 5747 5749 5750 5754 5759 5762 5768 5775 5778 5781 5787 5790 5798 5803 5806 5808 5811 5814 5816 5818 5819 5819 5818 5817 5817
5609 5618 5628 5636 5648 5662 5664 5667 5676 5686 5695 5701 5705 5713 5718 5720 5723 5726 5730 5733 5736 5740 5743 5746 5749 5754 5759 5763 5768 5772 5777 5783 5793 5796 5799 5800 5802 5804 5806 5807 5808 5808 5804 5805
5604 5613 5624 5633 5646 5621 5638 5655 5664 5677 5683 5692 5697 5705 5708 5710 5713 5715 5718 5721 5725 5727 5729 5713 5733 5742 5745 5749 5754 5757 5763 5771 5778 5781 5784 5783 5788 5794 5795 5796 5795 5795 5795 5795
Wind_Speed
28 29 22 19 17 15 20 21 16 10 19 27 22 17 13 18 13 13 9 3 3 6 7 9 9 10 9 7 7 6 6 4 3 3 3 3 5 5 5 4 2 3 3 5
21 22 25 23 24 21 23 18 20 16 28 31 21 16 19 13 16 23 9 2 5 5 7 8 8 8 8 7 7 6 5 4 5 5 4 3 4 4 4 3 3 4 7 9
16 12 24 28 29 26 25 24 20 26 24 32 26 18 17 15 18 12 9 4 6 8 9 7 8 10 9 10 9 8 7 8 8 7 6 6 6 7 5 4 5 8 10 13
19 19 24 29 32 30 27 22 23 27 19 24 23 20 21 22 19 13 9 10 6 8 8 10 9 9 9 10 9 9 10 10 9 9 10 9 9 10 8 7 8 11 14 16
14 22 22 24 29 33 23 27 29 31 25 27 24 32 27 24 28 20 18 18 11 8 10 7 10 14 15 13 13 12 11 11 12 11 12 11 13 12 12 11 12 14 12 11
21 23 25 21 26 33 27 31 34 37 28 32 30 28 30 32 24 23 23 16 24 10 10 13 12 17 17 17 18 19 17 16 16 16 16 16 16 15 14 14 13 13 11 9
25 27 26 26 26 30 33 37 40 47 46 44 34 37 29 16 25 30 26 29 31 28 10 10 13 14 16 17 16 16 18 21 20 20 18 19 18 17 17 16 13 11 8 8
33 34 27 24 28 29 30 38 45 49 48 48 39 45 31 20 15 27 29 36 28 38 21 7 11 16 14 15 13 14 16 21 24 24 23 20 20 19 19 16 12 7 6 3
36 35 27 31 27 30 33 36 31 44 45 48 47 43 24 26 22 27 31 32 33 22 18 10 13 12 16 15 12 9 8 16 20 20 22 24 23 22 18 13 5 1 2 1
39 40 36 33 32 35 36 31 35 38 47 52 44 48 37 23 26 33 34 33 34 41 34 14 19 19 20 17 14 11 7 9 9 11 15 18 21 20 15 8 3 5 1 8
41 44 41 40 43 39 38 40 43 39 42 45 46 47 36 29 22 36 37 32 35 33 32 29 23 26 23 24 22 13 10 10 10 9 9 11 15 14 11 5 9 4 3 4
41 42 48 47 44 39 37 40 42 49 42 47 48 40 33 31 23 36 26 27 29 34 32 32 28 30 24 31 23 12 12 8 10 10 7 6 5 7 6 7 11 6 6 7
38 48 46 50 49 48 47 40 42 43 44 48 46 38 35 39 31 33 43 34 30 31 35 32 37 38 26 27 24 17 15 11 10 8 6 5 5 6 6 9 9 7 8 10
50 51 57 58 55 49 50 45 42 43 48 44 49 42 30 46 43 36 31 36 35 21 35 37 38 34 29 24 26 22 18 16 15 9 7 7 6 7 7 10 9 9 11 10
64 58 58 58 48 51 52 43 43 46 45 48 39 46 41 48 49 40 37 52 28 33 35 39 39 40 34 25 24 23 22 21 20 16 11 10 10 8 7 12 13 10 9 11
69 66 56 56 55 48 55 50 46 43 39 42 41 42 46 43 38 31 44 41 36 33 37 37 40 46 37 36 36 35 25 24 25 22 16 16 14 11 10 14 15 15 15 17
65 69 58 66 59 50 49 61 52 41 38 36 42 39 37 53 49 34 25 32 42 37 40 44 39 39 40 41 41 36 33 27 28 28 25 19 17 16 15 17 15 15 18 20
68 61 60 68 62 59 62 54 49 44 40 40 37 34 35 42 54 49 44 44 49 41 42 39 43 42 45 46 48 46 40 31 29 29 29 26 20 18 19 20 18 17 15 16
67 59 61 58 70 65 61 54 50 46 44 37 36 32 31 41 54 62 53 51 56 51 44 46 48 37 43 40 43 41 43 36 32 30 33 31 23 20 24 21 21 20 17 17
60 54 57 53 66 73 67 54 48 48 47 44 46 42 41 42 42 52 65 63 56 50 54 57 51 41 46 43 42 46 46 41 39 33 34 32 30 24 28 26 23 23 23 22
62 50 45 47 59 65 66 58 41 45 52 51 55 52 50 48 46 45 47 69 71 64 57 60 56 60 56 45 44 46 42 42 37 36 36 37 36 29 27 29 32 28 28 28
65 59 45 36 45 56 55 55 51 49 54 53 49 50 53 51 51 52 47 41 49 76 74 69 61 53 51 55 55 41 39 37 39 37 38 39 35 29 26 22 24 30 30 37
63 54 51 44 42 47 47 48 57 62 58 59 59 54 50 51 49 47 47 44 44 48 62 73 80 68 57 59 69 62 56 47 41 40 40 39 34 30 26 22 30 30 34 40
66 49 43 50 60 58 56 58 57 60 56 58 50 45 41 39 39 46 46 50 50 53 52 55 60 69 71 69 57 60 63 57 46 45 43 41 33 34 33 31 32 34 41 45
70 53 39 51 53 47 43 59 55 52 50 50 51 40 40 43 44 47 50 50 43 44 55 58 56 54 52 50 59 64 67 63 53 45 44 41 37 38 37 37 37 43 41 38
45 49 55 47 52 23 55 44 50 61 47 61 54 49 39 38 42 46 44 46 41 49 44 47 58 54 50 47 49 46 49 56 49 47 47 46 43 40 41 45 42 44 45 39
Wind_Direction
240 237 239 241 246 228 228 233 158 160 232 256 272 258 272 320 302 273 246 244 200 202 189 180 174 170 176 185 194 193 174 194 199 184 211 168 154 166 175 174 227 308 314 306
240 246 238 238 235 224 224 233 169 184 246 253 268 312 269 299 286 275 255 234 267 233 190 195 199 201 199 213 224 223 218 209 234 226 213 198 190 207 193 216 256 303 308 314
244 240 236 234 236 230 216 220 208 203 198 255 251 259 261 273 275 263 256 278 307 285 270 235 222 207 205 213 226 235 237 237 225 231 230 218 209 223 230 242 277 284 297 305
240 220 226 230 234 237 220 210 218 194 209 244 252 245 251 255 263 260 290 303 288 295 288 284 272 264 246 235 234 243 242 245 245 234 235 236 231 233 240 260 273 294 298 304
235 236 233 231 234 230 224 204 209 197 213 254 238 224 238 265 252 268 282 289 264 265 276 289 298 288 278 262 252 248 252 258 260 245 249 245 245 243 245 255 276 289 305 302
239 235 236 229 232 230 221 214 207 207 205 230 252 243 240 240 269 269 279 282 277 255 276 259 282 293 272 269 263 256 256 260 264 263 253 248 251 256 259 265 274 306 317 317
251 249 239 229 227 229 216 218 208 212 212 221 226 246 244 223 247 271 257 257 269 262 245 264 278 298 275 259 254 256 255 259 257 258 254 251 254 260 265 269 289 302 305 318
241 239 240 236 232 230 235 220 223 221 222 223 221 232 229 212 254 268 265 258 258 279 250 251 275 296 270 268 251 245 250 259 261 255 253 247 253 257 264 269 284 298 294 191
248 247 235 233 231 228 226 237 240 229 227 227 227 228 228 239 243 249 263 265 273 268 245 234 280 288 270 261 253 254 257 256 261 258 256 252 254 259 263 266 278 298 183 121
239 241 231 236 234 233 228 234 229 231 230 232 231 223 227 225 249 250 252 248 273 260 249 238 268 277 281 254 260 248 265 273 267 265 257 254 246 253 257 257 187 168 289 334
235 239 237 231 230 229 231 224 227 233 236 235 238 237 216 206 240 253 253 259 271 282 282 275 274 289 289 260 253 258 253 282 279 276 273 257 245 238 246 210 197 231 342 335
241 236 233 238 233 235 232 237 231 234 235 235 236 246 206 213 236 259 268 274 266 274 281 274 262 267 273 272 256 249 251 274 286 288 302 271 237 218 219 211 211 270 291 315
249 243 235 226 229 229 234 230 234 234 243 245 241 254 218 199 222 240 234 227 232 234 255 272 257 260 259 250 250 248 257 267 281 273 271 221 183 176 195 212 243 267 271 304
217 243 237 233 233 220 226 234 234 235 235 238 242 249 233 204 217 236 238 217 260 223 237 244 245 248 247 242 238 244 250 264 272 279 230 205 194 196 206 232 238 249 273 308
209 217 237 239 228 221 224 218 237 239 241 240 240 241 241 207 219 239 248 246 259 232 218 222 231 237 244 244 247 238 247 254 267 275 246 229 223 223 224 232 232 242 270 307
206 214 219 235 241 224 219 216 222 241 247 245 243 236 232 220 220 236 243 257 249 221 220 234 230 239 247 254 257 257 253 251 259 262 268 243 240 242 244 239 239 250 275 291
205 210 217 225 227 225 211 218 212 219 240 247 245 237 235 223 211 217 230 240 246 241 233 230 230 241 252 264 271 275 264 255 256 253 253 251 250 249 246 242 251 261 264 277
201 203 206 222 222 218 229 215 210 212 223 239 249 256 250 229 211 212 219 238 241 238 234 218 235 239 247 258 261 264 269 269 262 249 248 252 247 243 239 250 258 260 273 288
202 202 209 218 220 220 222 221 207 206 217 216 228 235 232 226 217 213 219 231 242 231 219 211 229 229 237 245 253 262 265 261 258 242 247 253 252 258 239 243 254 260 277 293
201 200 206 209 221 218 223 215 210 211 219 210 217 224 229 233 228 222 218 224 226 233 243 236 245 248 225 236 246 249 251 257 260 245 246 255 253 254 237 229 244 260 274 283
197 199 198 206 217 221 220 214 207 208 221 222 220 223 228 235 247 250 234 225 228 228 232 242 244 244 246 245 241 237 241 247 252 246 242 248 250 254 240 239 245 263 272 275
203 202 188 196 216 221 214 217 213 211 222 223 221 225 232 239 238 243 253 255 240 231 233 233 240 242 249 246 251 241 231 246 249 245 242 244 251 250 246 252 262 262 270 281
200 195 192 188 205 214 203 203 206 213 216 226 231 232 233 238 241 247 242 243 244 235 235 237 237 236 238 247 249 247 248 258 243 241 243 246 251 252 257 263 262 268 277 285
196 196 197 187 202 203 196 205 211 218 222 225 232 232 231 235 241 240 245 251 252 247 243 243 240 239 241 242 236 244 250 248 239 239 239 244 249 254 259 263 268 273 277 282
201 207 194 199 197 196 208 208 209 216 229 226 236 229 234 238 240 244 250 253 259 252 251 243 247 245 245 238 241 243 243 246 239 236 237 239 244 248 255 262 265 269 266 265
205 201 200 196 190 204 200 216 224 220 226 225 235 234 231 236 244 250 256 259 260 252 267 230 234 237 233 237 239 242 244 237 229 227 233 231 236 247 254 258 263 261 268 279